Time,TemperatureF,DewpointF,PressureIn,WindDirection,WindDirectionDegrees,WindSpeedMPH,WindSpeedGustMPH,Humidity,HourlyPrecipIn,Conditions,Clouds,dailyrainin,SoftwareType,DateUTC
2013-05-07 00:01:00,58.0,55.9,29.96,NE,51,0.0,1.0,93,0.00,,,0.00,WUHU216DAVISVP2,2013-05-07 05:01:00,
2013-05-07 00:06:00,57.9,55.8,29.97,NE,51,0.0,0.0,93,0.00,,,0.00,WUHU216DAVISVP2,2013-05-07 05:06:00,
2013-05-07 00:11:00,57.8,55.7,29.97,NE,49,1.0,1.0,93,0.00,,,0.00,WUHU216DAVISVP2,2013-05-07 05:11:00,
2013-05-07 00:16:00,57.5,55.5,29.97,NW,323,0.0,1.0,93,0.00,,,0.00,WUHU216DAVISVP2,2013-05-07 05:16:00,
2013-05-07 00:21:00,57.4,55.4,29.97,NNW,329,2.0,2.0,93,0.00,,,0.00,WUHU216DAVISVP2,2013-05-07 05:21:00,
2013-05-07 00:26:00,57.3,55.3,29.96,NW,318,0.0,2.0,93,0.00,,,0.00,WUHU216DAVISVP2,2013-05-07 05:26:00,
2013-05-07 00:31:00,57.2,55.2,29.96,NNW,335,1.0,1.0,93,0.00,,,0.00,WUHU216DAVISVP2,2013-05-07 05:31:00,
2013-05-07 00:36:00,57.0,55.0,29.96,NW,326,0.0,2.0,93,0.00,,,0.00,WUHU216DAVISVP2,2013-05-07 05:36:00,
2013-05-07 00:41:00,57.0,55.3,29.96,NW,326,0.0,2.0,94,0.00,,,0.00,WUHU216DAVISVP2,2013-05-07 05:41:00,
2013-05-07 00:46:00,57.0,55.3,29.96,NW,326,0.0,1.0,94,0.00,,,0.00,WUHU216DAVISVP2,2013-05-07 05:46:00,
2013-05-07 00:51:00,56.9,55.2,29.96,NW,326,0.0,1.0,94,0.00,,,0.00,WUHU216DAVISVP2,2013-05-07 05:51:00,
2013-05-07 00:56:00,56.8,55.1,29.96,NW,326,0.0,0.0,94,0.00,,,0.00,WUHU216DAVISVP2,2013-05-07 05:56:00,
2013-05-07 01:01:00,56.8,55.1,29.96,North,355,0.0,0.0,94,0.00,,,0.00,WUHU216DAVISVP2,2013-05-07 06:01:00,
2013-05-07 01:06:00,56.6,54.9,29.96,North,354,0.0,1.0,94,0.00,,,0.00,WUHU216DAVISVP2,2013-05-07 06:06:00,
2013-05-07 01:11:00,56.5,54.8,29.96,NNW,334,1.0,2.0,94,0.00,,,0.00,WUHU216DAVISVP2,2013-05-07 06:11:00,
2013-05-07 01:16:00,56.1,54.4,29.96,NNW,341,1.0,2.0,94,0.00,,,0.00,WUHU216DAVISVP2,2013-05-07 06:16:00,
2013-05-07 01:21:00,56.0,54.3,29.96,NNW,335,0.0,2.0,94,0.00,,,0.00,WUHU216DAVISVP2,2013-05-07 06:21:00,
2013-05-07 01:26:00,55.9,54.2,29.96,NNW,335,0.0,1.0,94,0.00,,,0.00,WUHU216DAVISVP2,2013-05-07 06:26:00,
2013-05-07 01:31:00,56.0,54.5,29.96,NNE,29,0.0,1.0,95,0.00,,,0.00,WUHU216DAVISVP2,2013-05-07 06:31:00,
2013-05-07 01:36:00,56.0,54.5,29.96,NNE,18,0.0,1.0,95,0.00,,,0.00,WUHU216DAVISVP2,2013-05-07 06:36:00,
2013-05-07 01:41:00,56.0,54.5,29.96,NNW,337,0.0,0.0,95,0.00,,,0.00,WUHU216DAVISVP2,2013-05-07 06:41:00,
2013-05-07 01:46:00,55.9,54.5,29.95,NNW,337,0.0,0.0,95,0.00,,,0.00,WUHU216DAVISVP2,2013-05-07 06:46:00,
2013-05-07 01:51:00,55.7,54.3,29.95,NNW,337,0.0,0.0,95,0.00,,,0.00,WUHU216DAVISVP2,2013-05-07 06:51:00,
2013-05-07 01:56:00,55.9,54.5,29.95,NNW,337,0.0,0.0,95,0.00,,,0.00,WUHU216DAVISVP2,2013-05-07 06:56:00,
2013-05-07 02:01:00,55.7,54.3,29.95,NNW,337,0.0,0.0,95,0.00,,,0.00,WUHU216DAVISVP2,2013-05-07 07:01:00,
2013-05-07 02:06:00,55.3,53.9,29.96,NNW,332,1.0,1.0,95,0.00,,,0.00,WUHU216DAVISVP2,2013-05-07 07:06:00,
2013-05-07 02:11:00,55.1,53.7,29.95,NNW,332,0.0,1.0,95,0.00,,,0.00,WUHU216DAVISVP2,2013-05-07 07:11:00,
2013-05-07 02:16:00,55.0,53.6,29.95,NNW,328,2.0,2.0,95,0.00,,,0.00,WUHU216DAVISVP2,2013-05-07 07:16:00,
2013-05-07 02:21:00,54.9,53.5,29.96,NNW,335,0.0,2.0,95,0.00,,,0.00,WUHU216DAVISVP2,2013-05-07 07:21:00,
2013-05-07 02:26:00,54.8,53.4,29.96,NNW,335,0.0,2.0,95,0.00,,,0.00,WUHU216DAVISVP2,2013-05-07 07:26:00,
2013-05-07 02:31:00,54.9,53.7,29.96,NNW,335,0.0,0.0,96,0.00,,,0.00,WUHU216DAVISVP2,2013-05-07 07:31:00,
2013-05-07 02:36:00,54.9,53.8,29.96,NNW,335,0.0,0.0,96,0.00,,,0.00,WUHU216DAVISVP2,2013-05-07 07:36:00,
2013-05-07 02:41:00,54.9,53.8,29.96,NNW,335,0.0,0.0,96,0.00,,,0.00,WUHU216DAVISVP2,2013-05-07 07:41:00,
2013-05-07 02:46:00,55.0,53.9,29.96,NNW,335,0.0,0.0,96,0.00,,,0.00,WUHU216DAVISVP2,2013-05-07 07:46:00,
2013-05-07 02:51:00,54.9,53.7,29.96,NNW,335,0.0,0.0,96,0.00,,,0.00,WUHU216DAVISVP2,2013-05-07 07:51:00,
2013-05-07 02:56:00,54.7,53.5,29.96,NNW,335,0.0,0.0,96,0.00,,,0.00,WUHU216DAVISVP2,2013-05-07 07:56:00,
2013-05-07 03:01:00,54.7,53.5,29.96,NNW,333,0.0,1.0,96,0.00,,,0.00,WUHU216DAVISVP2,2013-05-07 08:01:00,
2013-05-07 03:06:00,54.6,53.4,29.96,NNW,331,0.0,1.0,96,0.00,,,0.00,WUHU216DAVISVP2,2013-05-07 08:06:00,
2013-05-07 03:11:00,54.5,53.3,29.96,NNW,331,0.0,1.0,96,0.00,,,0.00,WUHU216DAVISVP2,2013-05-07 08:11:00,
2013-05-07 03:16:00,54.6,53.4,29.96,NNW,331,0.0,0.0,96,0.00,,,0.00,WUHU216DAVISVP2,2013-05-07 08:16:00,
2013-05-07 03:21:00,54.8,53.6,29.96,NNW,331,0.0,0.0,96,0.00,,,0.00,WUHU216DAVISVP2,2013-05-07 08:21:00,
2013-05-07 03:26:00,54.9,53.7,29.96,NNW,331,1.0,1.0,96,0.00,,,0.00,WUHU216DAVISVP2,2013-05-07 08:26:00,
2013-05-07 03:30:00,55.1,54.2,29.96,NW,323,2.0,3.0,97,0.00,,,0.00,WUHU216DAVISVP2,2013-05-07 08:30:00,
2013-05-07 03:36:00,54.7,53.3,29.96,NW,320,0.0,3.0,95,0.00,,,0.00,WUHU216DAVISVP2,2013-05-07 08:36:00,
2013-05-07 03:41:00,54.9,53.7,29.96,NW,324,1.0,3.0,96,0.00,,,0.00,WUHU216DAVISVP2,2013-05-07 08:41:00,
2013-05-07 03:46:00,54.9,53.7,29.96,NNW,331,1.0,3.0,96,0.00,,,0.00,WUHU216DAVISVP2,2013-05-07 08:46:00,
2013-05-07 03:51:00,54.9,53.7,29.96,NNW,329,3.0,3.0,96,0.00,,,0.00,WUHU216DAVISVP2,2013-05-07 08:51:00,
2013-05-07 03:56:00,55.1,53.9,29.96,NNE,30,3.0,4.0,96,0.00,,,0.00,WUHU216DAVISVP2,2013-05-07 08:56:00,
2013-05-07 04:01:00,55.1,53.9,29.96,NNW,336,3.0,4.0,96,0.00,,,0.00,WUHU216DAVISVP2,2013-05-07 09:01:00,
2013-05-07 04:05:00,54.9,53.7,29.97,North,352,0.0,3.0,96,0.00,,,0.00,WUHU216DAVISVP2,2013-05-07 09:05:00,
2013-05-07 04:11:00,54.8,53.6,29.97,North,352,1.0,3.0,96,0.00,,,0.00,WUHU216DAVISVP2,2013-05-07 09:11:00,
2013-05-07 04:15:00,54.8,53.6,29.97,East,81,0.0,1.0,96,0.00,,,0.00,WUHU216DAVISVP2,2013-05-07 09:15:00,
2013-05-07 04:21:00,54.6,53.5,29.97,East,81,0.0,1.0,96,0.00,,,0.00,WUHU216DAVISVP2,2013-05-07 09:21:00,
2013-05-07 04:25:00,54.7,53.6,29.97,NW,317,0.0,2.0,96,0.00,,,0.00,WUHU216DAVISVP2,2013-05-07 09:25:00,
2013-05-07 04:31:00,54.5,53.4,29.97,NW,317,0.0,2.0,96,0.00,,,0.00,WUHU216DAVISVP2,2013-05-07 09:31:00,
2013-05-07 04:36:00,54.5,53.4,29.97,NNW,335,0.0,0.0,96,0.00,,,0.00,WUHU216DAVISVP2,2013-05-07 09:36:00,
2013-05-07 04:41:00,54.9,54.1,29.97,East,91,0.0,0.0,97,0.00,,,0.00,WUHU216DAVISVP2,2013-05-07 09:41:00,
2013-05-07 04:46:00,55.3,54.5,29.97,NW,320,2.0,4.0,97,0.00,,,0.00,WUHU216DAVISVP2,2013-05-07 09:46:00,
2013-05-07 04:51:00,55.5,54.7,29.97,North,4,1.0,4.0,97,0.00,,,0.00,WUHU216DAVISVP2,2013-05-07 09:51:00,
2013-05-07 04:56:00,55.7,54.8,29.97,NNW,340,1.0,2.0,97,0.00,,,0.00,WUHU216DAVISVP2,2013-05-07 09:56:00,
2013-05-07 05:01:00,55.9,55.0,29.97,NNW,330,0.0,3.0,97,0.00,,,0.00,WUHU216DAVISVP2,2013-05-07 10:01:00,
2013-05-07 05:06:00,55.9,54.7,29.97,North,1,0.0,3.0,96,0.00,,,0.00,WUHU216DAVISVP2,2013-05-07 10:06:00,
2013-05-07 05:11:00,55.9,54.7,29.97,North,3,0.0,1.0,96,0.00,,,0.00,WUHU216DAVISVP2,2013-05-07 10:11:00,
2013-05-07 05:15:00,56.0,54.8,29.97,NW,307,0.0,1.0,96,0.00,,,0.00,WUHU216DAVISVP2,2013-05-07 10:15:00,
2013-05-07 05:20:00,56.2,55.0,29.97,NE,40,0.0,2.0,96,0.00,,,0.00,WUHU216DAVISVP2,2013-05-07 10:20:00,
2013-05-07 05:25:00,56.1,54.9,29.98,NE,40,0.0,2.0,96,0.00,,,0.00,WUHU216DAVISVP2,2013-05-07 10:25:00,
2013-05-07 05:30:00,56.0,54.8,29.98,NE,40,0.0,0.0,96,0.00,,,0.00,WUHU216DAVISVP2,2013-05-07 10:30:00,
2013-05-07 05:35:00,55.9,54.7,29.98,NE,40,0.0,0.0,96,0.00,,,0.00,WUHU216DAVISVP2,2013-05-07 10:35:00,
2013-05-07 05:40:00,55.7,54.5,29.98,NE,40,0.0,0.0,96,0.00,,,0.00,WUHU216DAVISVP2,2013-05-07 10:40:00,
2013-05-07 05:45:00,55.4,54.0,29.98,NNW,334,0.0,1.0,95,0.00,,,0.00,WUHU216DAVISVP2,2013-05-07 10:45:00,
2013-05-07 05:50:00,55.1,53.7,29.98,NNW,333,0.0,1.0,95,0.00,,,0.00,WUHU216DAVISVP2,2013-05-07 10:50:00,
2013-05-07 05:55:00,55.2,54.0,29.98,East,84,0.0,1.0,96,0.00,,,0.00,WUHU216DAVISVP2,2013-05-07 10:55:00,
2013-05-07 06:00:00,55.5,54.3,29.98,ENE,77,2.0,2.0,96,0.00,,,0.00,WUHU216DAVISVP2,2013-05-07 11:00:00,
2013-05-07 06:05:00,55.7,54.5,29.98,East,82,0.0,2.0,96,0.00,,,0.00,WUHU216DAVISVP2,2013-05-07 11:05:00,
2013-05-07 06:10:00,55.9,54.7,29.98,ENE,62,0.0,2.0,96,0.00,,,0.00,WUHU216DAVISVP2,2013-05-07 11:10:00,
2013-05-07 06:15:00,56.1,54.9,29.99,NE,51,0.0,2.0,96,0.00,,,0.00,WUHU216DAVISVP2,2013-05-07 11:15:00,
2013-05-07 06:20:00,56.3,55.1,29.98,NE,48,0.0,1.0,96,0.00,,,0.00,WUHU216DAVISVP2,2013-05-07 11:20:00,
2013-05-07 06:25:00,56.4,54.9,29.99,NNW,327,1.0,1.0,95,0.00,,,0.00,WUHU216DAVISVP2,2013-05-07 11:25:00,
2013-05-07 06:30:00,56.4,54.9,29.99,NNW,333,1.0,2.0,95,0.00,,,0.00,WUHU216DAVISVP2,2013-05-07 11:30:00,
2013-05-07 06:35:00,56.3,54.8,29.99,NW,318,1.0,2.0,95,0.00,,,0.00,WUHU216DAVISVP2,2013-05-07 11:35:00,
2013-05-07 06:40:00,56.3,54.8,30.00,NNW,330,1.0,2.0,95,0.00,,,0.00,WUHU216DAVISVP2,2013-05-07 11:40:00,
2013-05-07 06:45:00,56.5,55.0,30.00,North,349,2.0,2.0,95,0.00,,,0.00,WUHU216DAVISVP2,2013-05-07 11:45:00,
2013-05-07 06:50:00,56.6,55.1,30.00,NNW,338,0.0,2.0,95,0.00,,,0.00,WUHU216DAVISVP2,2013-05-07 11:50:00,
2013-05-07 06:55:00,56.8,55.3,30.00,NNW,340,0.0,2.0,95,0.00,,,0.00,WUHU216DAVISVP2,2013-05-07 11:55:00,
2013-05-07 07:00:00,57.0,55.6,30.00,ENE,63,0.0,0.0,95,0.00,,,0.00,WUHU216DAVISVP2,2013-05-07 12:00:00,
2013-05-07 07:05:00,57.3,55.5,30.00,ENE,65,3.0,3.0,94,0.00,,,0.00,WUHU216DAVISVP2,2013-05-07 12:05:00,
2013-05-07 07:10:00,57.5,55.7,30.00,East,83,2.0,4.0,94,0.00,,,0.00,WUHU216DAVISVP2,2013-05-07 12:10:00,
2013-05-07 07:15:00,57.8,55.7,30.00,NE,56,1.0,4.0,93,0.00,,,0.00,WUHU216DAVISVP2,2013-05-07 12:15:00,
2013-05-07 07:20:00,57.9,55.8,30.00,ENE,59,0.0,4.0,93,0.00,,,0.00,WUHU216DAVISVP2,2013-05-07 12:20:00,
2013-05-07 07:25:00,58.1,56.0,30.00,NE,37,0.0,1.0,93,0.00,,,0.00,WUHU216DAVISVP2,2013-05-07 12:25:00,
2013-05-07 07:30:00,58.3,56.2,30.00,NE,37,0.0,0.0,93,0.00,,,0.00,WUHU216DAVISVP2,2013-05-07 12:30:00,
2013-05-07 07:35:00,58.5,56.1,30.00,NE,53,0.0,0.0,92,0.00,,,0.00,WUHU216DAVISVP2,2013-05-07 12:35:00,
2013-05-07 07:40:00,58.7,56.3,30.00,NE,56,1.0,3.0,92,0.00,,,0.00,WUHU216DAVISVP2,2013-05-07 12:40:00,
2013-05-07 07:45:00,58.9,56.5,30.00,ENE,63,0.0,3.0,92,0.00,,,0.00,WUHU216DAVISVP2,2013-05-07 12:45:00,
2013-05-07 07:50:00,59.3,56.9,30.01,ENE,77,0.0,1.0,92,0.00,,,0.00,WUHU216DAVISVP2,2013-05-07 12:50:00,
2013-05-07 07:55:00,59.6,56.9,30.00,ENE,66,2.0,2.0,91,0.00,,,0.00,WUHU216DAVISVP2,2013-05-07 12:55:00,
2013-05-07 08:00:00,59.9,56.9,30.01,East,82,2.0,2.0,90,0.00,,,0.00,WUHU216DAVISVP2,2013-05-07 13:00:00,
2013-05-07 08:05:00,60.1,57.4,30.01,ENE,65,2.0,3.0,91,0.00,,,0.00,WUHU216DAVISVP2,2013-05-07 13:05:00,
2013-05-07 08:10:00,60.3,57.3,30.01,ENE,65,1.0,3.0,90,0.00,,,0.00,WUHU216DAVISVP2,2013-05-07 13:10:00,
2013-05-07 08:15:00,60.7,57.4,30.01,ENE,68,1.0,3.0,89,0.00,,,0.00,WUHU216DAVISVP2,2013-05-07 13:15:00,
2013-05-07 08:20:00,61.1,57.8,30.01,ENE,65,1.0,3.0,89,0.00,,,0.00,WUHU216DAVISVP2,2013-05-07 13:20:00,
2013-05-07 08:25:00,61.2,57.3,30.01,ENE,72,2.0,4.0,87,0.00,,,0.00,WUHU216DAVISVP2,2013-05-07 13:25:00,
2013-05-07 08:30:00,61.3,57.7,30.02,NE,56,2.0,5.0,88,0.00,,,0.00,WUHU216DAVISVP2,2013-05-07 13:30:00,
2013-05-07 08:35:00,61.5,57.9,30.02,ENE,60,1.0,5.0,88,0.00,,,0.00,WUHU216DAVISVP2,2013-05-07 13:35:00,
2013-05-07 08:40:00,61.8,58.2,30.02,ENE,67,2.0,3.0,88,0.00,,,0.00,WUHU216DAVISVP2,2013-05-07 13:40:00,
2013-05-07 08:45:00,62.0,58.1,30.02,NE,55,3.0,3.0,87,0.00,,,0.00,WUHU216DAVISVP2,2013-05-07 13:45:00,
2013-05-07 08:50:00,62.2,58.3,30.02,ENE,60,6.0,7.0,87,0.00,,,0.00,WUHU216DAVISVP2,2013-05-07 13:50:00,
2013-05-07 08:55:00,62.4,58.2,30.02,NE,53,3.0,7.0,86,0.00,,,0.00,WUHU216DAVISVP2,2013-05-07 13:55:00,
2013-05-07 09:00:00,62.6,58.4,30.02,ENE,60,2.0,5.0,86,0.00,,,0.00,WUHU216DAVISVP2,2013-05-07 14:00:00,
2013-05-07 09:05:00,62.8,58.2,30.03,East,89,3.0,5.0,85,0.00,,,0.00,WUHU216DAVISVP2,2013-05-07 14:05:00,
2013-05-07 09:10:00,62.9,58.3,30.03,NE,56,4.0,7.0,85,0.00,,,0.00,WUHU216DAVISVP2,2013-05-07 14:10:00,
2013-05-07 09:15:00,63.0,58.1,30.03,ENE,76,4.0,7.0,84,0.00,,,0.00,WUHU216DAVISVP2,2013-05-07 14:15:00,
2013-05-07 09:20:00,63.2,58.3,30.03,ENE,77,4.0,7.0,84,0.00,,,0.00,WUHU216DAVISVP2,2013-05-07 14:20:00,
2013-05-07 09:25:00,63.3,58.4,30.03,ENE,68,5.0,7.0,84,0.00,,,0.00,WUHU216DAVISVP2,2013-05-07 14:25:00,
2013-05-07 09:30:00,63.5,58.3,30.03,ENE,75,5.0,6.0,83,0.00,,,0.00,WUHU216DAVISVP2,2013-05-07 14:30:00,
2013-05-07 09:35:00,63.7,58.5,30.03,East,82,5.0,8.0,83,0.00,,,0.00,WUHU216DAVISVP2,2013-05-07 14:35:00,
2013-05-07 09:40:00,63.9,58.3,30.02,East,93,8.0,8.0,82,0.00,,,0.00,WUHU216DAVISVP2,2013-05-07 14:40:00,
2013-05-07 09:45:00,63.8,57.9,30.02,NE,49,8.0,9.0,81,0.00,,,0.00,WUHU216DAVISVP2,2013-05-07 14:45:00,
2013-05-07 09:50:00,63.9,58.0,30.02,ENE,74,4.0,9.0,81,0.00,,,0.00,WUHU216DAVISVP2,2013-05-07 14:50:00,
2013-05-07 09:55:00,64.3,58.7,30.02,ENE,58,4.0,9.0,82,0.00,,,0.00,WUHU216DAVISVP2,2013-05-07 14:55:00,
2013-05-07 10:00:00,64.5,57.9,30.02,East,80,7.0,9.0,79,0.00,,,0.00,WUHU216DAVISVP2,2013-05-07 15:00:00,
2013-05-07 10:05:00,64.5,58.3,30.02,ENE,61,4.0,9.0,80,0.00,,,0.00,WUHU216DAVISVP2,2013-05-07 15:05:00,
2013-05-07 10:10:00,64.6,58.0,30.02,East,82,5.0,8.0,79,0.00,,,0.00,WUHU216DAVISVP2,2013-05-07 15:10:00,
2013-05-07 10:15:00,64.8,58.2,30.02,ENE,67,5.0,7.0,79,0.00,,,0.00,WUHU216DAVISVP2,2013-05-07 15:15:00,
2013-05-07 10:20:00,64.9,58.7,30.02,East,89,3.0,8.0,80,0.00,,,0.00,WUHU216DAVISVP2,2013-05-07 15:20:00,
2013-05-07 10:25:00,65.2,58.6,30.02,East,95,5.0,8.0,79,0.00,,,0.00,WUHU216DAVISVP2,2013-05-07 15:25:00,
2013-05-07 10:30:00,65.2,58.9,30.02,ENE,70,4.0,6.0,80,0.00,,,0.00,WUHU216DAVISVP2,2013-05-07 15:30:00,
2013-05-07 10:35:00,65.6,59.0,30.02,East,82,2.0,6.0,79,0.00,,,0.00,WUHU216DAVISVP2,2013-05-07 15:35:00,
2013-05-07 10:40:00,66.3,59.3,30.02,NE,51,4.0,6.0,78,0.00,,,0.00,WUHU216DAVISVP2,2013-05-07 15:40:00,
2013-05-07 10:45:00,66.1,58.8,30.02,ENE,60,5.0,7.0,77,0.00,,,0.00,WUHU216DAVISVP2,2013-05-07 15:45:00,
2013-05-07 10:50:00,66.1,58.4,30.02,ENE,65,3.0,7.0,76,0.00,,,0.00,WUHU216DAVISVP2,2013-05-07 15:50:00,
2013-05-07 10:55:00,66.6,59.6,30.02,East,84,2.0,6.0,78,0.00,,,0.00,WUHU216DAVISVP2,2013-05-07 15:55:00,
2013-05-07 11:00:00,67.4,59.3,30.02,ENE,60,3.0,4.0,75,0.00,,,0.00,WUHU216DAVISVP2,2013-05-07 16:00:00,
2013-05-07 11:05:00,67.5,59.4,30.02,East,100,4.0,4.0,75,0.00,,,0.00,WUHU216DAVISVP2,2013-05-07 16:05:00,
2013-05-07 11:10:00,67.6,59.9,30.02,East,82,0.0,5.0,76,0.00,,,0.00,WUHU216DAVISVP2,2013-05-07 16:10:00,
2013-05-07 11:15:00,68.4,59.6,30.02,ENE,77,2.0,6.0,73,0.00,,,0.00,WUHU216DAVISVP2,2013-05-07 16:15:00,
2013-05-07 11:20:00,68.3,59.5,30.02,East,82,3.0,6.0,73,0.00,,,0.00,WUHU216DAVISVP2,2013-05-07 16:20:00,
2013-05-07 11:25:00,68.2,58.4,30.02,East,89,1.0,7.0,71,0.00,,,0.00,WUHU216DAVISVP2,2013-05-07 16:25:00,
2013-05-07 11:30:00,68.9,59.9,30.02,NE,52,4.0,7.0,73,0.00,,,0.00,WUHU216DAVISVP2,2013-05-07 16:30:00,
2013-05-07 11:35:00,69.0,59.2,30.02,ENE,65,3.0,6.0,71,0.00,,,0.00,WUHU216DAVISVP2,2013-05-07 16:35:00,
2013-05-07 11:40:00,69.2,59.6,30.02,NNW,328,3.0,6.0,71,0.00,,,0.00,WUHU216DAVISVP2,2013-05-07 16:40:00,
2013-05-07 11:45:00,69.9,59.3,30.02,NW,318,4.0,6.0,69,0.00,,,0.00,WUHU216DAVISVP2,2013-05-07 16:45:00,
2013-05-07 11:50:00,69.6,59.0,30.02,NNW,330,5.0,6.0,69,0.00,,,0.00,WUHU216DAVISVP2,2013-05-07 16:50:00,
2013-05-07 11:55:00,70.0,59.4,30.02,NNE,12,4.0,7.0,69,0.00,,,0.00,WUHU216DAVISVP2,2013-05-07 16:55:00,
2013-05-07 12:00:00,70.6,59.9,30.02,ENE,58,2.0,7.0,69,0.00,,,0.00,WUHU216DAVISVP2,2013-05-07 17:00:00,
2013-05-07 12:05:00,70.9,59.0,30.02,NNW,332,6.0,6.0,66,0.00,,,0.00,WUHU216DAVISVP2,2013-05-07 17:05:00,
2013-05-07 12:10:00,70.9,59.0,30.02,ENE,70,3.0,6.0,66,0.00,,,0.00,WUHU216DAVISVP2,2013-05-07 17:10:00,
2013-05-07 12:15:00,71.1,58.7,30.02,NW,323,0.0,5.0,65,0.00,,,0.00,WUHU216DAVISVP2,2013-05-07 17:15:00,
2013-05-07 12:20:00,72.1,59.2,30.01,NNE,20,4.0,5.0,64,0.00,,,0.00,WUHU216DAVISVP2,2013-05-07 17:20:00,
2013-05-07 12:25:00,72.5,59.2,30.01,NNW,327,5.0,9.0,63,0.00,,,0.00,WUHU216DAVISVP2,2013-05-07 17:25:00,
2013-05-07 12:30:00,72.8,60.3,30.01,West,260,0.0,9.0,65,0.00,,,0.00,WUHU216DAVISVP2,2013-05-07 17:30:00,
2013-05-07 12:35:00,73.5,58.3,30.01,East,86,1.0,9.0,59,0.00,,,0.00,WUHU216DAVISVP2,2013-05-07 17:35:00,
2013-05-07 12:40:00,73.1,59.8,30.01,NNW,347,4.0,5.0,63,0.00,,,0.00,WUHU216DAVISVP2,2013-05-07 17:40:00,
2013-05-07 12:45:00,72.7,58.9,30.01,NNW,332,0.0,5.0,62,0.00,,,0.00,WUHU216DAVISVP2,2013-05-07 17:45:00,
2013-05-07 12:50:00,72.7,58.0,30.01,SW,229,3.0,5.0,60,0.00,,,0.00,WUHU216DAVISVP2,2013-05-07 17:50:00,
2013-05-07 12:55:00,72.9,60.4,30.01,NNW,330,3.0,7.0,65,0.00,,,0.00,WUHU216DAVISVP2,2013-05-07 17:55:00,
2013-05-07 13:00:00,72.8,59.5,30.01,NW,326,4.0,8.0,63,0.00,,,0.00,WUHU216DAVISVP2,2013-05-07 18:00:00,
2013-05-07 13:05:00,73.0,59.7,30.01,NNW,333,6.0,10.0,63,0.00,,,0.00,WUHU216DAVISVP2,2013-05-07 18:05:00,
2013-05-07 13:10:00,72.9,58.2,30.01,WSW,240,3.0,10.0,60,0.00,,,0.00,WUHU216DAVISVP2,2013-05-07 18:10:00,
2013-05-07 13:15:00,72.9,59.1,30.01,NNW,342,6.0,12.0,62,0.00,,,0.00,WUHU216DAVISVP2,2013-05-07 18:15:00,
2013-05-07 13:20:00,72.9,58.7,30.01,West,281,3.0,12.0,61,0.00,,,0.00,WUHU216DAVISVP2,2013-05-07 18:20:00,
2013-05-07 13:25:00,73.1,59.3,30.01,NNW,345,4.0,10.0,62,0.00,,,0.00,WUHU216DAVISVP2,2013-05-07 18:25:00,
2013-05-07 13:30:00,72.7,58.0,30.01,NNW,333,3.0,11.0,60,0.00,,,0.00,WUHU216DAVISVP2,2013-05-07 18:30:00,
2013-05-07 13:35:00,72.9,58.2,30.00,WSW,249,8.0,11.0,60,0.00,,,0.00,WUHU216DAVISVP2,2013-05-07 18:35:00,
2013-05-07 13:40:00,73.2,59.8,30.00,NNW,337,7.0,11.0,63,0.00,,,0.00,WUHU216DAVISVP2,2013-05-07 18:40:00,
2013-05-07 13:45:00,73.3,58.6,30.00,NNW,335,10.0,11.0,60,0.00,,,0.00,WUHU216DAVISVP2,2013-05-07 18:45:00,
2013-05-07 13:50:00,73.4,59.1,30.00,NW,318,5.0,11.0,61,0.00,,,0.00,WUHU216DAVISVP2,2013-05-07 18:50:00,
2013-05-07 13:55:00,73.4,58.7,30.00,NW,323,9.0,12.0,60,0.00,,,0.00,WUHU216DAVISVP2,2013-05-07 18:55:00,
2013-05-07 14:00:00,73.4,58.2,30.00,NNW,328,4.0,12.0,59,0.00,,,0.00,WUHU216DAVISVP2,2013-05-07 19:00:00,
2013-05-07 14:05:00,73.3,58.6,30.00,NW,316,10.0,13.0,60,0.00,,,0.00,WUHU216DAVISVP2,2013-05-07 19:05:00,
2013-05-07 14:10:00,73.3,59.5,30.00,NW,321,4.0,13.0,62,0.00,,,0.00,WUHU216DAVISVP2,2013-05-07 19:10:00,
2013-05-07 14:15:00,73.6,58.9,29.99,NW,314,13.0,13.0,60,0.00,,,0.00,WUHU216DAVISVP2,2013-05-07 19:15:00,
2013-05-07 14:20:00,73.9,58.2,29.99,NNW,338,3.0,13.0,58,0.00,,,0.00,WUHU216DAVISVP2,2013-05-07 19:20:00,
2013-05-07 14:25:00,73.9,57.7,29.99,NNW,348,13.0,13.0,57,0.00,,,0.00,WUHU216DAVISVP2,2013-05-07 19:25:00,
2013-05-07 14:30:00,74.0,57.3,29.99,East,94,5.0,13.0,56,0.00,,,0.00,WUHU216DAVISVP2,2013-05-07 19:30:00,
2013-05-07 14:35:00,74.5,59.4,29.99,NW,314,6.0,11.0,59,0.00,,,0.00,WUHU216DAVISVP2,2013-05-07 19:35:00,
2013-05-07 14:40:00,73.9,56.3,29.99,NW,305,5.0,14.0,54,0.00,,,0.00,WUHU216DAVISVP2,2013-05-07 19:40:00,
2013-05-07 14:45:00,74.2,58.0,29.99,NNW,332,8.0,14.0,57,0.00,,,0.00,WUHU216DAVISVP2,2013-05-07 19:45:00,
2013-05-07 14:50:00,74.4,55.6,29.99,NNE,14,7.0,13.0,52,0.00,,,0.00,WUHU216DAVISVP2,2013-05-07 19:50:00,
2013-05-07 14:55:00,74.7,57.6,29.99,NE,56,1.0,13.0,55,0.00,,,0.00,WUHU216DAVISVP2,2013-05-07 19:55:00,
2013-05-07 15:00:00,75.2,55.9,29.99,NW,309,6.0,9.0,51,0.00,,,0.00,WUHU216DAVISVP2,2013-05-07 20:00:00,
2013-05-07 15:05:00,75.1,55.7,29.99,NE,45,3.0,9.0,51,0.00,,,0.00,WUHU216DAVISVP2,2013-05-07 20:05:00,
2013-05-07 15:10:00,74.9,57.8,29.99,NW,319,5.0,10.0,55,0.00,,,0.00,WUHU216DAVISVP2,2013-05-07 20:10:00,
2013-05-07 15:15:00,74.9,56.7,29.98,NNW,346,5.0,10.0,53,0.00,,,0.00,WUHU216DAVISVP2,2013-05-07 20:15:00,
2013-05-07 15:20:00,74.8,57.7,29.98,NW,316,9.0,14.0,55,0.00,,,0.00,WUHU216DAVISVP2,2013-05-07 20:20:00,
2013-05-07 15:25:00,74.7,57.1,29.98,NW,318,3.0,14.0,54,0.00,,,0.00,WUHU216DAVISVP2,2013-05-07 20:25:00,
2013-05-07 15:30:00,75.0,57.9,29.98,NNW,333,10.0,13.0,55,0.00,,,0.00,WUHU216DAVISVP2,2013-05-07 20:30:00,
2013-05-07 15:35:00,74.8,57.2,29.98,NW,321,8.0,13.0,54,0.00,,,0.00,WUHU216DAVISVP2,2013-05-07 20:35:00,
2013-05-07 15:40:00,74.8,56.1,29.98,NE,36,5.0,13.0,52,0.00,,,0.00,WUHU216DAVISVP2,2013-05-07 20:40:00,
2013-05-07 15:45:00,75.1,57.5,29.98,NW,319,6.0,13.0,54,0.00,,,0.00,WUHU216DAVISVP2,2013-05-07 20:45:00,
2013-05-07 15:50:00,75.4,58.3,29.98,NW,320,8.0,12.0,55,0.00,,,0.00,WUHU216DAVISVP2,2013-05-07 20:50:00,
2013-05-07 15:55:00,75.3,57.7,29.98,NW,311,13.0,13.0,54,0.00,,,0.00,WUHU216DAVISVP2,2013-05-07 20:55:00,
2013-05-07 16:00:00,75.5,57.3,29.98,NNW,327,3.0,13.0,53,0.00,,,0.00,WUHU216DAVISVP2,2013-05-07 21:00:00,
2013-05-07 16:05:00,75.7,58.0,29.97,NNW,332,2.0,12.0,54,0.00,,,0.00,WUHU216DAVISVP2,2013-05-07 21:05:00,
2013-05-07 16:10:00,75.8,57.0,29.97,NNW,340,8.0,10.0,52,0.00,,,0.00,WUHU216DAVISVP2,2013-05-07 21:10:00,
2013-05-07 16:15:00,75.6,55.7,29.97,NNW,330,3.0,10.0,50,0.00,,,0.00,WUHU216DAVISVP2,2013-05-07 21:15:00,
2013-05-07 16:20:00,75.4,55.0,29.97,NNW,328,6.0,10.0,49,0.00,,,0.00,WUHU216DAVISVP2,2013-05-07 21:20:00,
2013-05-07 16:25:00,75.6,56.3,29.97,NNW,333,7.0,11.0,51,0.00,,,0.00,WUHU216DAVISVP2,2013-05-07 21:25:00,
2013-05-07 16:30:00,75.5,57.3,29.97,NNW,330,7.0,11.0,53,0.00,,,0.00,WUHU216DAVISVP2,2013-05-07 21:30:00,
2013-05-07 16:35:00,75.5,55.1,29.97,NNW,334,5.0,11.0,49,0.00,,,0.00,WUHU216DAVISVP2,2013-05-07 21:35:00,
2013-05-07 16:40:00,75.8,58.5,29.97,NW,308,3.0,9.0,55,0.00,,,0.00,WUHU216DAVISVP2,2013-05-07 21:40:00,
2013-05-07 16:45:00,75.9,58.6,29.97,NW,319,7.0,11.0,55,0.00,,,0.00,WUHU216DAVISVP2,2013-05-07 21:45:00,
2013-05-07 16:50:00,75.3,57.0,29.97,NW,319,3.0,12.0,53,0.00,,,0.00,WUHU216DAVISVP2,2013-05-07 21:50:00,
2013-05-07 16:55:00,74.8,57.0,29.97,NNE,15,8.0,12.0,54,0.00,,,0.00,WUHU216DAVISVP2,2013-05-07 21:55:00,
2013-05-07 17:00:00,74.8,56.5,29.97,NW,316,11.0,11.0,53,0.00,,,0.00,WUHU216DAVISVP2,2013-05-07 22:00:00,
2013-05-07 17:05:00,75.2,57.6,29.97,West,280,5.0,11.0,54,0.00,,,0.00,WUHU216DAVISVP2,2013-05-07 22:05:00,
2013-05-07 17:10:00,75.2,56.5,29.96,NNW,342,4.0,9.0,52,0.00,,,0.00,WUHU216DAVISVP2,2013-05-07 22:10:00,
2013-05-07 17:15:00,75.7,57.5,29.96,WNW,283,5.0,11.0,53,0.00,,,0.00,WUHU216DAVISVP2,2013-05-07 22:15:00,
2013-05-07 17:20:00,75.9,57.7,29.96,NW,309,3.0,11.0,53,0.00,,,0.00,WUHU216DAVISVP2,2013-05-07 22:20:00,
2013-05-07 17:25:00,76.2,57.4,29.96,West,278,3.0,7.0,52,0.00,,,0.00,WUHU216DAVISVP2,2013-05-07 22:25:00,
2013-05-07 17:30:00,76.1,56.8,29.96,NW,323,5.0,9.0,51,0.00,,,0.00,WUHU216DAVISVP2,2013-05-07 22:30:00,
2013-05-07 17:35:00,76.2,56.9,29.96,NW,313,3.0,9.0,51,0.00,,,0.00,WUHU216DAVISVP2,2013-05-07 22:35:00,
2013-05-07 17:40:00,76.0,58.3,29.96,NNW,334,6.0,8.0,54,0.00,,,0.00,WUHU216DAVISVP2,2013-05-07 22:40:00,
2013-05-07 17:45:00,75.6,57.9,29.96,NNW,340,7.0,12.0,54,0.00,,,0.00,WUHU216DAVISVP2,2013-05-07 22:45:00,
2013-05-07 17:50:00,75.5,58.4,29.96,West,272,6.0,12.0,55,0.00,,,0.00,WUHU216DAVISVP2,2013-05-07 22:50:00,
2013-05-07 17:55:00,75.8,57.6,29.97,NW,314,3.0,8.0,53,0.00,,,0.00,WUHU216DAVISVP2,2013-05-07 22:55:00,
2013-05-07 18:00:00,75.6,58.8,29.97,NW,321,8.0,8.0,56,0.00,,,0.00,WUHU216DAVISVP2,2013-05-07 23:00:00,
2013-05-07 18:05:00,74.8,57.5,29.97,WNW,302,2.0,9.0,55,0.00,,,0.00,WUHU216DAVISVP2,2013-05-07 23:05:00,
2013-05-07 18:10:00,74.5,56.8,29.97,WNW,282,5.0,9.0,54,0.00,,,0.00,WUHU216DAVISVP2,2013-05-07 23:10:00,
2013-05-07 18:15:00,74.8,57.7,29.97,West,278,3.0,7.0,55,0.00,,,0.00,WUHU216DAVISVP2,2013-05-07 23:15:00,
2013-05-07 18:20:00,74.3,55.6,29.97,NNW,327,3.0,9.0,52,0.00,,,0.00,WUHU216DAVISVP2,2013-05-07 23:20:00,
2013-05-07 18:25:00,73.5,57.0,29.97,WNW,288,3.0,9.0,56,0.00,,,0.00,WUHU216DAVISVP2,2013-05-07 23:25:00,
2013-05-07 18:30:00,72.7,56.8,29.97,WSW,239,2.0,7.0,57,0.00,,,0.00,WUHU216DAVISVP2,2013-05-07 23:30:00,
2013-05-07 18:35:00,72.2,57.7,29.97,NW,319,1.0,7.0,60,0.00,,,0.00,WUHU216DAVISVP2,2013-05-07 23:35:00,
2013-05-07 18:40:00,71.7,57.7,29.97,West,267,1.0,7.0,61,0.00,,,0.00,WUHU216DAVISVP2,2013-05-07 23:40:00,
2013-05-07 18:45:00,71.6,57.6,29.97,WNW,283,1.0,4.0,61,0.00,,,0.00,WUHU216DAVISVP2,2013-05-07 23:45:00,
2013-05-07 18:50:00,71.4,58.3,29.97,North,352,0.0,4.0,63,0.00,,,0.00,WUHU216DAVISVP2,2013-05-07 23:50:00,
2013-05-07 18:55:00,71.2,59.0,29.97,NW,315,0.0,4.0,65,0.00,,,0.00,WUHU216DAVISVP2,2013-05-07 23:55:00,
2013-05-07 19:00:00,70.8,59.1,29.97,NNW,327,1.0,1.0,66,0.00,,,0.00,WUHU216DAVISVP2,2013-05-08 00:00:00,
2013-05-07 19:05:00,70.4,58.7,29.97,West,278,0.0,2.0,66,0.00,,,0.00,WUHU216DAVISVP2,2013-05-08 00:05:00,
2013-05-07 19:10:00,70.0,58.7,29.97,WNW,282,1.0,2.0,67,0.00,,,0.00,WUHU216DAVISVP2,2013-05-08 00:10:00,
2013-05-07 19:15:00,69.7,58.9,29.97,WNW,290,0.0,4.0,68,0.00,,,0.00,WUHU216DAVISVP2,2013-05-08 00:15:00,
2013-05-07 19:20:00,69.4,59.4,29.97,WNW,293,0.0,4.0,70,0.00,,,0.00,WUHU216DAVISVP2,2013-05-08 00:20:00,
2013-05-07 19:25:00,69.0,59.4,29.97,WNW,286,0.0,3.0,71,0.00,,,0.00,WUHU216DAVISVP2,2013-05-08 00:25:00,
2013-05-07 19:30:00,68.7,59.5,29.97,WNW,283,0.0,2.0,72,0.00,,,0.00,WUHU216DAVISVP2,2013-05-08 00:30:00,
2013-05-07 19:35:00,68.5,59.7,29.97,WNW,283,0.0,2.0,73,0.00,,,0.00,WUHU216DAVISVP2,2013-05-08 00:35:00,
2013-05-07 19:40:00,68.1,59.6,29.97,WNW,283,0.0,1.0,74,0.00,,,0.00,WUHU216DAVISVP2,2013-05-08 00:40:00,
2013-05-07 19:45:00,67.8,59.3,29.97,WNW,283,0.0,1.0,74,0.00,,,0.00,WUHU216DAVISVP2,2013-05-08 00:45:00,
2013-05-07 19:50:00,67.6,59.5,29.97,WNW,283,0.0,1.0,75,0.00,,,0.00,WUHU216DAVISVP2,2013-05-08 00:50:00,
2013-05-07 19:55:00,67.3,59.2,29.98,West,275,1.0,1.0,75,0.00,,,0.00,WUHU216DAVISVP2,2013-05-08 00:55:00,
2013-05-07 20:00:00,67.1,59.0,29.98,West,272,1.0,1.0,75,0.00,,,0.00,WUHU216DAVISVP2,2013-05-08 01:00:00,
2013-05-07 20:05:00,66.9,59.2,29.98,NNW,328,0.0,1.0,76,0.00,,,0.00,WUHU216DAVISVP2,2013-05-08 01:05:00,
2013-05-07 20:10:00,66.6,59.6,29.98,West,269,0.0,1.0,78,0.00,,,0.00,WUHU216DAVISVP2,2013-05-08 01:10:00,
2013-05-07 20:15:00,66.1,59.1,29.98,West,281,1.0,2.0,78,0.00,,,0.00,WUHU216DAVISVP2,2013-05-08 01:15:00,
2013-05-07 20:20:00,65.9,58.9,29.98,West,278,1.0,2.0,78,0.00,,,0.00,WUHU216DAVISVP2,2013-05-08 01:20:00,
2013-05-07 20:25:00,65.7,59.1,29.98,WNW,283,1.0,2.0,79,0.00,,,0.00,WUHU216DAVISVP2,2013-05-08 01:25:00,
2013-05-07 20:30:00,65.4,59.1,29.98,West,277,0.0,2.0,80,0.00,,,0.00,WUHU216DAVISVP2,2013-05-08 01:30:00,
2013-05-07 20:35:00,65.1,59.2,29.98,West,277,0.0,1.0,81,0.00,,,0.00,WUHU216DAVISVP2,2013-05-08 01:35:00,
2013-05-07 20:40:00,64.8,58.9,29.98,West,279,1.0,1.0,81,0.00,,,0.00,WUHU216DAVISVP2,2013-05-08 01:40:00,
2013-05-07 20:45:00,64.6,58.7,29.98,West,281,0.0,1.0,81,0.00,,,0.00,WUHU216DAVISVP2,2013-05-08 01:45:00,
2013-05-07 20:50:00,64.4,58.5,29.98,West,281,0.0,1.0,81,0.00,,,0.00,WUHU216DAVISVP2,2013-05-08 01:50:00,
2013-05-07 20:55:00,64.1,58.2,29.98,West,280,0.0,1.0,81,0.00,,,0.00,WUHU216DAVISVP2,2013-05-08 01:55:00,
2013-05-07 21:00:00,63.9,58.0,29.99,West,280,0.0,1.0,81,0.00,,,0.00,WUHU216DAVISVP2,2013-05-08 02:00:00,
2013-05-07 21:05:00,63.7,57.8,29.99,West,274,0.0,1.0,81,0.00,,,0.00,WUHU216DAVISVP2,2013-05-08 02:05:00,
2013-05-07 21:10:00,63.5,57.6,29.99,WNW,283,0.0,1.0,81,0.00,,,0.00,WUHU216DAVISVP2,2013-05-08 02:10:00,
2013-05-07 21:15:00,63.3,57.8,29.99,West,267,0.0,1.0,82,0.00,,,0.00,WUHU216DAVISVP2,2013-05-08 02:15:00,
2013-05-07 21:20:00,63.1,57.6,29.99,West,267,0.0,1.0,82,0.00,,,0.00,WUHU216DAVISVP2,2013-05-08 02:20:00,
2013-05-07 21:25:00,63.0,57.4,29.99,West,267,0.0,0.0,82,0.00,,,0.00,WUHU216DAVISVP2,2013-05-08 02:25:00,
2013-05-07 21:30:00,62.8,57.2,29.99,West,267,1.0,1.0,82,0.00,,,0.00,WUHU216DAVISVP2,2013-05-08 02:30:00,
2013-05-07 21:35:00,62.6,57.0,29.99,NNW,345,0.0,1.0,82,0.00,,,0.00,WUHU216DAVISVP2,2013-05-08 02:35:00,
2013-05-07 21:40:00,62.5,57.3,29.99,NNW,345,0.0,0.0,83,0.00,,,0.00,WUHU216DAVISVP2,2013-05-08 02:40:00,
2013-05-07 21:45:00,62.3,57.1,29.99,NNW,345,0.0,0.0,83,0.00,,,0.00,WUHU216DAVISVP2,2013-05-08 02:45:00,
2013-05-07 21:50:00,62.2,57.0,29.99,NNW,345,0.0,0.0,83,0.00,,,0.00,WUHU216DAVISVP2,2013-05-08 02:50:00,
2013-05-07 21:55:00,62.1,56.9,29.99,NNW,345,0.0,0.0,83,0.00,,,0.00,WUHU216DAVISVP2,2013-05-08 02:55:00,
2013-05-07 22:00:00,61.9,56.7,29.99,WNW,282,0.0,0.0,83,0.00,,,0.00,WUHU216DAVISVP2,2013-05-08 03:00:00,
2013-05-07 22:05:00,61.8,56.6,29.99,WNW,282,0.0,0.0,83,0.00,,,0.00,WUHU216DAVISVP2,2013-05-08 03:05:00,
2013-05-07 22:10:00,61.7,56.1,29.99,WNW,282,0.0,0.0,82,0.00,,,0.00,WUHU216DAVISVP2,2013-05-08 03:10:00,
2013-05-07 22:15:00,61.6,56.0,29.99,WNW,282,0.0,0.0,82,0.00,,,0.00,WUHU216DAVISVP2,2013-05-08 03:15:00,
2013-05-07 22:20:00,61.4,55.9,29.99,WNW,282,0.0,0.0,82,0.00,,,0.00,WUHU216DAVISVP2,2013-05-08 03:20:00,
2013-05-07 22:25:00,61.2,56.0,29.99,WNW,282,0.0,0.0,83,0.00,,,0.00,WUHU216DAVISVP2,2013-05-08 03:25:00,
2013-05-07 22:30:00,61.1,55.9,29.99,WNW,282,0.0,0.0,83,0.00,,,0.00,WUHU216DAVISVP2,2013-05-08 03:30:00,
2013-05-07 22:35:00,60.9,56.0,29.99,NNE,26,0.0,0.0,84,0.00,,,0.00,WUHU216DAVISVP2,2013-05-08 03:35:00,
2013-05-07 22:40:00,60.8,55.9,29.99,NNE,26,0.0,0.0,84,0.00,,,0.00,WUHU216DAVISVP2,2013-05-08 03:40:00,
2013-05-07 22:45:00,60.7,55.8,29.99,NNE,19,0.0,0.0,84,0.00,,,0.00,WUHU216DAVISVP2,2013-05-08 03:45:00,
2013-05-07 22:50:00,60.7,56.2,29.99,NNE,18,0.0,0.0,85,0.00,,,0.00,WUHU216DAVISVP2,2013-05-08 03:50:00,
2013-05-07 22:55:00,60.6,56.1,29.99,NNE,19,0.0,0.0,85,0.00,,,0.00,WUHU216DAVISVP2,2013-05-08 03:55:00,
2013-05-07 23:00:00,60.4,55.9,29.99,NNE,19,0.0,0.0,85,0.00,,,0.00,WUHU216DAVISVP2,2013-05-08 04:00:00,
2013-05-07 23:01:00,60.4,55.9,29.99,NNE,19,0.0,0.0,85,0.00,,,0.00,WUHU216DAVISVP2,2013-05-08 04:01:00,
2013-05-07 23:06:00,60.1,55.6,29.99,NNE,19,0.0,0.0,85,0.00,,,0.00,WUHU216DAVISVP2,2013-05-08 04:06:00,
2013-05-07 23:11:00,59.7,55.5,29.99,NNE,19,0.0,0.0,86,0.00,,,0.00,WUHU216DAVISVP2,2013-05-08 04:11:00,
2013-05-07 23:16:00,59.7,55.5,29.99,NNE,19,0.0,0.0,86,0.00,,,0.00,WUHU216DAVISVP2,2013-05-08 04:16:00,
2013-05-07 23:21:00,60.1,55.6,29.99,West,269,0.0,0.0,85,0.00,,,0.00,WUHU216DAVISVP2,2013-05-08 04:21:00,
2013-05-07 23:26:00,60.4,55.6,29.99,WNW,282,0.0,1.0,84,0.00,,,0.00,WUHU216DAVISVP2,2013-05-08 04:26:00,
2013-05-07 23:31:00,60.3,55.5,29.99,WNW,282,1.0,1.0,84,0.00,,,0.00,WUHU216DAVISVP2,2013-05-08 04:31:00,
2013-05-07 23:36:00,60.3,55.5,29.99,WNW,282,0.0,1.0,84,0.00,,,0.00,WUHU216DAVISVP2,2013-05-08 04:36:00,
2013-05-07 23:41:00,60.1,55.3,29.99,WNW,282,0.0,1.0,84,0.00,,,0.00,WUHU216DAVISVP2,2013-05-08 04:41:00,
2013-05-07 23:46:00,60.0,55.5,29.99,WNW,282,0.0,1.0,85,0.00,,,0.00,WUHU216DAVISVP2,2013-05-08 04:46:00,
2013-05-07 23:51:00,59.7,55.2,29.99,WNW,282,0.0,1.0,85,0.00,,,0.00,WUHU216DAVISVP2,2013-05-08 04:51:00,
2013-05-07 23:56:00,59.5,55.3,29.99,WNW,282,0.0,0.0,86,0.00,,,0.00,WUHU216DAVISVP2,2013-05-08 04:56:00,